Flight Track Log - Related Links

Times and Time Zones

All times are in EDT time to prevent confusion due to time zone crossing. See the N5073N flight status page for this flight to view local times or setup timezone preferences in your user account.

Time Position Orientation Groundspeed Altitude Reporting Facility
EDT Latitude Longitude Course Direction KTS MPH feet Rate Location/Type
Wed 06:46:00 PM 40.6387 -82.5748 142° Southeast  Level FlightAware Approximate
Wed 06:47:00 PM 40.6027 -82.5899 128° Southeast  Level FlightAware Approximate
Wed 06:48:00 PM 40.5668 -82.6048 110° East  Level FlightAware Approximate
Wed 06:49:00 PM 40.5308 -82.6198 92° East  Level FlightAware Approximate
Wed 06:50:00 PM 40.4948 -82.6348 76° East  Level FlightAware Approximate
Wed 06:51:00 PM 40.4597 -82.6530 65° Northeast  Level FlightAware Approximate
Wed 06:52:00 PM 40.4237 -82.6677 56° Northeast  Level FlightAware Approximate
Wed 06:53:00 PM 40.3876 -82.6824 50° Northeast  Level FlightAware Approximate
Wed 06:54:00 PM 40.3516 -82.6971 45° Northeast  Level FlightAware Approximate
Wed 06:55:00 PM 40.3156 -82.7118 42° Northeast  Level FlightAware Approximate
Wed 06:56:00 PM 40.2795 -82.7265 39° Northeast  Level FlightAware Approximate
Wed 06:57:00 PM 40.2435 -82.7411 37° Northeast  Level FlightAware Approximate
Wed 06:58:00 PM 40.2074 -82.7558 35° Northeast  Level FlightAware Approximate
Wed 06:59:00 PM 40.1714 -82.7704 33° Northeast  Level FlightAware Approximate
Wed 07:00:00 PM 40.1353 -82.7850 32° Northeast  Level FlightAware Approximate
Wed 07:01:00 PM 40.0993 -82.7996 31° Northeast  Level FlightAware Approximate
Wed 07:02:00 PM 40.0652 -82.8133 30° Northeast  Level FlightAware Approximate
Wed 07:03:00 PM 40.0311 -82.8271 29° Northeast  Level FlightAware Approximate
Wed 07:04:00 PM 39.9970 -82.8409 28° Northeast  Level FlightAware Approximate
Wed 07:05:00 PM 39.9629 -82.8546 28° Northeast  Level FlightAware Approximate
Wed 07:06:00 PM 39.9308 -82.8731 28° Northeast  Level FlightAware Approximate
Wed 07:07:00 PM 39.8963 -82.8846 27° Northeast  Level FlightAware Approximate
Wed 07:08:00 PM 39.8617 -82.8961 26° Northeast  Level FlightAware Approximate
Wed 07:09:00 PM 39.8271 -82.9076 26° Northeast  Level FlightAware Approximate
Wed 07:10:00 PM 39.8038 -82.9428 27° Northeast  Level Estimated
Wed 07:10:34 PM 40.5272 -82.4619 196° South 91 105 4,500  Level Indianapolis Center
Wed 07:12:18 PM 40.4900 -82.4764 186° South 88 101 4,500  Level Indianapolis Center
Wed 07:13:13 PM 40.4692 -82.4794 194° South 88 101 4,500 52 Level Indianapolis Center
Wed 07:14:14 PM 40.4422 -82.4881 199° South 92 106 4,600 52 Climbing Indianapolis Center
Wed 07:15:08 PM 40.4172 -82.4992 195° South 99 114 4,600 -55 Level Indianapolis Center
Wed 07:16:03 PM 40.3922 -82.5078 195° South 102 117 4,500 -109 Descending Indianapolis Center

Login

Don't have an account? Register now (free) for customized features, flight alerts, and more!